CSC8633 ZUCK-ZULS

Flight info

Callsign CSC8633
Flight time 2h 22m
Altitude 36100
Route URGEG1Z URGEG W80 WFX B213 LXA
Aircraft A319/M-SDE3FGHIRWY/LB1

Departure

Time 2026-04-28 10:56
Airport Chongqing Jiangbei International Airport (ZUCK)

Arrival

Time 2026-04-28 13:18
Airport Lhasa Gonggar International Airport (ZULS)
Time Latitude Longitude Altitude Speed Heading
2026-04-28 10:44 29.71045 106.64647 1358 ft 0 kts 129°
2026-04-28 10:50 29.71049 106.64643 1357 ft 2 kts 129°
2026-04-28 10:50 29.71059 106.64628 1357 ft 2 kts 130°
2026-04-28 10:51 29.71069 106.64614 1356 ft 2 kts 130°
2026-04-28 10:51 29.71081 106.64601 1356 ft 2 kts 147°
2026-04-28 10:51 29.71095 106.64592 1355 ft 2 kts 162°
2026-04-28 10:51 29.71110 106.64588 1357 ft 2 kts 176°
2026-04-28 10:52 29.71126 106.64588 1355 ft 2 kts 191°
2026-04-28 10:52 29.71132 106.64589 1356 ft 0 kts 196°
2026-04-28 10:53 29.71067 106.64568 1357 ft 22 kts 197°
2026-04-28 10:53 29.71028 106.64482 1357 ft 11 kts 284°
2026-04-28 10:53 29.71002 106.64452 1358 ft 10 kts 192°
2026-04-28 10:53 29.70861 106.64406 1358 ft 27 kts 196°
2026-04-28 10:54 29.70681 106.64345 1360 ft 26 kts 196°
2026-04-28 10:54 29.70618 106.64262 1359 ft 12 kts 286°
2026-04-28 10:54 29.70640 106.64176 1359 ft 10 kts 287°
2026-04-28 10:54 29.70689 106.64139 1358 ft 9 kts
2026-04-28 10:55 29.70814 106.64182 1358 ft 33 kts 16°
2026-04-28 10:55 29.71214 106.64321 1359 ft 86 kts 17°
2026-04-28 10:55 29.71954 106.64579 1356 ft 135 kts 16°
2026-04-28 10:55 29.72995 106.64932 1468 ft 167 kts 21°
2026-04-28 10:56 29.74104 106.65314 2104 ft 167 kts 15°
2026-04-28 10:56 29.75214 106.65699 2779 ft 167 kts 15°
2026-04-28 10:56 29.76342 106.66090 3296 ft 176 kts 15°
2026-04-28 10:56 29.77589 106.66520 3545 ft 199 kts 16°
2026-04-28 10:57 29.79005 106.67010 3833 ft 224 kts 16°
2026-04-28 10:57 29.80538 106.67540 4513 ft 234 kts 17°
2026-04-28 10:57 29.82115 106.68085 5346 ft 239 kts 17°
2026-04-28 10:57 29.83723 106.68640 6216 ft 243 kts 16°
2026-04-28 10:58 29.85362 106.69204 7037 ft 248 kts 16°
2026-04-28 10:58 29.87026 106.69781 7863 ft 251 kts 16°
2026-04-28 10:58 29.88714 106.70368 8678 ft 256 kts 16°
2026-04-28 10:58 29.90433 106.70964 9498 ft 259 kts 17°
2026-04-28 10:59 29.92162 106.71565 10321 ft 261 kts 16°
2026-04-28 10:59 29.93893 106.72164 11031 ft 264 kts 16°
2026-04-28 10:59 29.95686 106.72675 11725 ft 268 kts
2026-04-28 10:59 29.97523 106.72340 12370 ft 272 kts 336°
2026-04-28 11:00 29.99047 106.71057 13044 ft 276 kts 309°
2026-04-28 11:00 29.99987 106.69115 13740 ft 280 kts 295°
2026-04-28 11:00 30.00769 106.67052 14397 ft 281 kts 296°
2026-04-28 11:00 30.01556 106.64984 15067 ft 282 kts 295°
2026-04-28 11:01 30.02347 106.62909 15721 ft 283 kts 294°
2026-04-28 11:01 30.03144 106.60823 16372 ft 285 kts 294°
2026-04-28 11:01 30.03946 106.58729 17013 ft 286 kts 293°
2026-04-28 11:01 30.04822 106.56660 17646 ft 289 kts 302°
2026-04-28 11:02 30.06187 106.54939 18254 ft 295 kts 320°
2026-04-28 11:02 30.08021 106.53785 18572 ft 312 kts 338°
2026-04-28 11:02 30.10248 106.53415 18694 ft 336 kts 356°
2026-04-28 11:02 30.12651 106.53433 18807 ft 354 kts 356°
2026-04-28 11:03 30.15170 106.53452 18931 ft 370 kts 356°
2026-04-28 11:03 30.17800 106.53467 19140 ft 382 kts 356°
2026-04-28 11:03 30.20438 106.53480 19523 ft 387 kts 356°
2026-04-28 11:03 30.23149 106.53493 19949 ft 392 kts 356°
2026-04-28 11:04 30.25888 106.53503 20380 ft 396 kts 356°
2026-04-28 11:04 30.28670 106.53509 20808 ft 401 kts 356°
2026-04-28 11:04 30.31469 106.53492 21230 ft 403 kts 353°
2026-04-28 11:04 30.34236 106.53021 21634 ft 402 kts 341°
2026-04-28 11:05 30.36858 106.51931 22038 ft 400 kts 329°
2026-04-28 11:05 30.39236 106.50283 22442 ft 398 kts 318°
2026-04-28 11:05 30.41318 106.48192 22865 ft 397 kts 312°
2026-04-28 11:05 30.43365 106.46008 23274 ft 401 kts 312°
2026-04-28 11:06 30.45431 106.43811 23667 ft 404 kts 312°
2026-04-28 11:06 30.47486 106.41627 24013 ft 407 kts 312°
2026-04-28 11:06 30.49604 106.39373 24407 ft 409 kts 312°
2026-04-28 11:06 30.51700 106.37142 24764 ft 411 kts 312°
2026-04-28 11:07 30.53785 106.34923 25111 ft 413 kts 312°
2026-04-28 11:07 30.55842 106.32600 25491 ft 411 kts 306°
2026-04-28 11:07 30.57471 106.29913 25848 ft 406 kts 294°
2026-04-28 11:07 30.58570 106.26911 26183 ft 403 kts 283°
2026-04-28 11:08 30.59113 106.23735 26511 ft 401 kts 272°
2026-04-28 11:08 30.59092 106.20510 26830 ft 400 kts 261°
2026-04-28 11:08 30.58761 106.17303 27157 ft 402 kts 261°
2026-04-28 11:08 30.58425 106.14071 27493 ft 404 kts 261°
2026-04-28 11:09 30.58090 106.10828 27824 ft 406 kts 261°
2026-04-28 11:09 30.57758 106.07564 28155 ft 408 kts 261°
2026-04-28 11:09 30.57425 106.04289 28464 ft 410 kts 261°
2026-04-28 11:09 30.57087 106.00996 28768 ft 412 kts 260°
2026-04-28 11:10 30.56745 105.97689 29083 ft 414 kts 261°
2026-04-28 11:10 30.56399 105.94371 29430 ft 415 kts 261°
2026-04-28 11:10 30.56050 105.91042 29753 ft 416 kts 261°
2026-04-28 11:10 30.55699 105.87701 30053 ft 418 kts 261°
2026-04-28 11:11 30.55348 105.84342 30318 ft 420 kts 261°
2026-04-28 11:11 30.54996 105.80972 30570 ft 421 kts 261°
2026-04-28 11:11 30.54642 105.77592 30791 ft 423 kts 260°
2026-04-28 11:11 30.54287 105.74236 30988 ft 426 kts 260°
2026-04-28 11:12 30.53926 105.70822 31219 ft 427 kts 260°
2026-04-28 11:12 30.53564 105.67389 31457 ft 429 kts 260°
2026-04-28 11:12 30.53203 105.63958 31797 ft 428 kts 260°
2026-04-28 11:12 30.52842 105.60534 32173 ft 426 kts 260°
2026-04-28 11:13 30.52482 105.57135 32543 ft 424 kts 260°
2026-04-28 11:13 30.52119 105.53749 32896 ft 423 kts 260°
2026-04-28 11:13 30.51758 105.50372 33243 ft 421 kts 260°
2026-04-28 11:13 30.51394 105.47007 33609 ft 420 kts 260°
2026-04-28 11:14 30.51153 105.44785 33841 ft 419 kts 260°
2026-04-28 11:14 30.50667 105.40302 34280 ft 418 kts 260°
2026-04-28 11:14 30.50427 105.38091 34473 ft 417 kts 260°
2026-04-28 11:14 30.50066 105.34754 34781 ft 416 kts 260°
2026-04-28 11:15 30.49837 105.31413 35068 ft 417 kts 267°
2026-04-28 11:15 30.50070 105.28044 35363 ft 420 kts 274°
2026-04-28 11:15 30.50462 105.24701 35642 ft 418 kts 274°
2026-04-28 11:15 30.50850 105.21364 35919 ft 417 kts 274°
2026-04-28 11:16 30.51233 105.18033 36151 ft 417 kts 274°
2026-04-28 11:16 30.51990 105.11404 36214 ft 413 kts 274°
2026-04-28 11:17 30.52744 105.04810 36219 ft 412 kts 274°
2026-04-28 11:17 30.53489 104.98223 36219 ft 412 kts 274°
2026-04-28 11:18 30.54232 104.91635 36230 ft 412 kts 274°
2026-04-28 11:18 30.54981 104.85068 36221 ft 409 kts 274°
2026-04-28 11:19 30.55720 104.78518 36221 ft 409 kts 274°
2026-04-28 11:19 30.56450 104.71975 36223 ft 409 kts 275°
2026-04-28 11:20 30.57495 104.65518 36222 ft 411 kts 279°
2026-04-28 11:20 30.58784 104.59060 36227 ft 411 kts 279°
2026-04-28 11:21 30.60051 104.52597 36228 ft 410 kts 278°
2026-04-28 11:21 30.60488 104.46067 36232 ft 404 kts 263°
2026-04-28 11:22 30.60054 104.39563 36224 ft 404 kts 263°
2026-04-28 11:22 30.59636 104.33053 36229 ft 404 kts 263°
2026-04-28 11:23 30.59222 104.26547 36229 ft 404 kts 263°
2026-04-28 11:23 30.58818 104.20077 36235 ft 404 kts 264°
2026-04-28 11:24 30.58451 104.13566 36243 ft 404 kts 264°
2026-04-28 11:24 30.58086 104.07059 36251 ft 403 kts 264°
2026-04-28 11:25 30.57705 104.00571 36246 ft 403 kts 264°
2026-04-28 11:25 30.57655 103.94070 36243 ft 407 kts 275°
2026-04-28 11:26 30.59201 103.87714 36247 ft 411 kts 284°
2026-04-28 11:26 30.60970 103.81405 36265 ft 411 kts 284°
2026-04-28 11:27 30.62719 103.75092 36264 ft 410 kts 284°
2026-04-28 11:27 30.64453 103.68840 36264 ft 409 kts 283°
2026-04-28 11:28 30.66081 103.62518 36268 ft 408 kts 282°
2026-04-28 11:28 30.67582 103.56168 36272 ft 407 kts 281°
2026-04-28 11:29 30.69080 103.49816 36269 ft 407 kts 281°
2026-04-28 11:29 30.70602 103.43470 36299 ft 407 kts 281°
2026-04-28 11:30 30.72130 103.37159 36304 ft 406 kts 281°
2026-04-28 11:30 30.74411 103.27708 36307 ft 404 kts 281°
2026-04-28 11:31 30.75904 103.21456 36310 ft 405 kts 281°
2026-04-28 11:31 30.77413 103.15144 36319 ft 404 kts 281°
2026-04-28 11:32 30.78915 103.08835 36314 ft 405 kts 281°
2026-04-28 11:32 30.80334 103.02508 36308 ft 402 kts 275°
2026-04-28 11:33 30.80522 102.96083 36317 ft 398 kts 265°
2026-04-28 11:33 30.80403 102.89684 36302 ft 398 kts 265°
2026-04-28 11:34 30.80289 102.83260 36293 ft 397 kts 265°
2026-04-28 11:34 30.80171 102.76837 36276 ft 397 kts 265°
2026-04-28 11:35 30.80051 102.70413 36272 ft 397 kts 265°
2026-04-28 11:35 30.79930 102.63984 36266 ft 397 kts 265°
2026-04-28 11:36 30.79805 102.57548 36224 ft 398 kts 265°
2026-04-28 11:36 30.79670 102.51117 36252 ft 398 kts 265°
2026-04-28 11:37 30.79539 102.44702 36217 ft 399 kts 265°
2026-04-28 11:37 30.79404 102.38242 36234 ft 399 kts 266°
2026-04-28 11:38 30.79265 102.31775 36193 ft 400 kts 265°
2026-04-28 11:38 30.79119 102.25296 36196 ft 401 kts 265°
2026-04-28 11:39 30.78969 102.18817 36169 ft 401 kts 265°
2026-04-28 11:39 30.78818 102.12348 36158 ft 400 kts 265°
2026-04-28 11:40 30.78659 102.05856 36163 ft 402 kts 265°
2026-04-28 11:40 30.78503 101.99352 36164 ft 402 kts 266°
2026-04-28 11:41 30.78345 101.92884 36159 ft 402 kts 266°
2026-04-28 11:41 30.78593 101.86399 36151 ft 402 kts 272°
2026-04-28 11:42 30.79137 101.79923 36154 ft 403 kts 272°
2026-04-28 11:42 30.79686 101.73441 36144 ft 403 kts 272°
2026-04-28 11:43 30.80225 101.66948 36156 ft 402 kts 272°
2026-04-28 11:43 30.80756 101.60461 36151 ft 402 kts 272°
2026-04-28 11:44 30.81284 101.53996 36148 ft 401 kts 272°
2026-04-28 11:44 30.81807 101.47570 36138 ft 401 kts 272°
2026-04-28 11:45 30.82329 101.41108 36131 ft 401 kts 272°
2026-04-28 11:45 30.82840 101.34654 36124 ft 400 kts 272°
2026-04-28 11:46 30.83354 101.28189 36129 ft 402 kts 272°
2026-04-28 11:46 30.83871 101.21725 36103 ft 400 kts 272°
2026-04-28 11:47 30.84383 101.15237 36118 ft 403 kts 272°
2026-04-28 11:47 30.84894 101.08734 36119 ft 403 kts 272°
2026-04-28 11:48 30.85390 101.02246 36122 ft 402 kts 272°
2026-04-28 11:48 30.85887 100.95800 36114 ft 403 kts 272°
2026-04-28 11:49 30.86378 100.89316 36096 ft 401 kts 272°
2026-04-28 11:49 30.86875 100.82838 36108 ft 403 kts 272°
2026-04-28 11:50 30.87373 100.76340 36104 ft 403 kts 272°
2026-04-28 11:50 30.87859 100.69842 36106 ft 403 kts 272°
2026-04-28 11:51 30.88344 100.63345 36108 ft 403 kts 272°
2026-04-28 11:51 30.88823 100.56854 36114 ft 403 kts 272°
2026-04-28 11:52 30.89296 100.50366 36118 ft 401 kts 272°
2026-04-28 11:52 30.89769 100.43902 36116 ft 400 kts 272°
2026-04-28 11:53 30.90235 100.37495 36100 ft 399 kts 272°
2026-04-28 11:53 30.90697 100.31052 36094 ft 400 kts 272°
2026-04-28 11:54 30.91157 100.24613 36095 ft 399 kts 272°
2026-04-28 11:54 30.91615 100.18180 36075 ft 399 kts 273°
2026-04-28 11:55 30.92066 100.11724 36070 ft 401 kts 274°
2026-04-28 11:55 30.92519 100.05246 36065 ft 401 kts 273°
2026-04-28 11:56 30.92968 99.98751 36072 ft 403 kts 274°
2026-04-28 11:56 30.93474 99.92238 36090 ft 404 kts 274°
2026-04-28 11:57 30.94017 99.85728 36095 ft 404 kts 274°
2026-04-28 11:57 30.94544 99.79219 36099 ft 404 kts 275°
2026-04-28 11:58 30.95050 99.72694 36099 ft 405 kts 275°
2026-04-28 11:58 30.95560 99.66163 36099 ft 405 kts 275°
2026-04-28 11:59 30.96062 99.59623 36101 ft 405 kts 275°
2026-04-28 11:59 30.96564 99.53075 36093 ft 405 kts 275°
2026-04-28 12:00 30.97064 99.46536 36093 ft 405 kts 275°
2026-04-28 12:00 30.97561 99.39997 36095 ft 405 kts 275°
2026-04-28 12:01 30.98052 99.33455 36087 ft 405 kts 275°
2026-04-28 12:01 30.98539 99.26924 36079 ft 405 kts 275°
2026-04-28 12:02 30.99020 99.20419 36069 ft 405 kts 275°
2026-04-28 12:02 30.99505 99.13877 36068 ft 405 kts 275°
2026-04-28 12:03 30.99983 99.07340 36052 ft 405 kts 276°
2026-04-28 12:03 31.00453 99.00797 36053 ft 405 kts 276°
2026-04-28 12:04 31.00847 98.95311 36054 ft 405 kts 276°
2026-04-28 12:04 31.01314 98.88806 36042 ft 405 kts 276°
2026-04-28 12:05 31.01777 98.82266 36048 ft 405 kts 276°
2026-04-28 12:05 31.02245 98.75727 36036 ft 404 kts 276°
2026-04-28 12:06 31.02706 98.69191 36045 ft 405 kts 276°
2026-04-28 12:06 31.03172 98.62657 36036 ft 404 kts 276°
2026-04-28 12:07 31.03718 98.56143 36034 ft 404 kts 277°
2026-04-28 12:07 31.04290 98.49630 36031 ft 403 kts 277°
2026-04-28 12:08 31.04835 98.43167 36033 ft 403 kts 277°
2026-04-28 12:08 31.05365 98.36672 36024 ft 402 kts 277°
2026-04-28 12:09 31.05891 98.30166 36031 ft 404 kts 277°
2026-04-28 12:09 31.06419 98.23653 36039 ft 403 kts 277°
2026-04-28 12:10 31.06941 98.17140 36063 ft 402 kts 277°
2026-04-28 12:10 31.07457 98.10625 36055 ft 402 kts 277°
2026-04-28 12:11 31.07979 98.04176 36060 ft 402 kts 277°
2026-04-28 12:11 31.08509 97.97686 36061 ft 402 kts 277°
2026-04-28 12:12 31.09027 97.91188 36063 ft 402 kts 277°
2026-04-28 12:12 31.09540 97.84696 36066 ft 401 kts 277°
2026-04-28 12:13 31.10054 97.78210 36074 ft 402 kts 277°
2026-04-28 12:13 31.10562 97.71716 36069 ft 402 kts 277°
2026-04-28 12:14 31.11065 97.65236 36069 ft 400 kts 277°
2026-04-28 12:14 31.11564 97.58762 36047 ft 400 kts 277°
2026-04-28 12:15 31.12064 97.52290 36040 ft 400 kts 277°
2026-04-28 12:15 31.12566 97.45793 36044 ft 401 kts 277°
2026-04-28 12:16 31.13053 97.39312 36046 ft 401 kts 277°
2026-04-28 12:16 31.13535 97.32865 36058 ft 401 kts 277°
2026-04-28 12:17 31.14025 97.26379 36051 ft 402 kts 277°
2026-04-28 12:17 31.14491 97.19871 36045 ft 403 kts 274°
2026-04-28 12:18 31.13756 97.13365 36047 ft 408 kts 259°
2026-04-28 12:18 31.12370 97.06938 36047 ft 408 kts 260°
2026-04-28 12:19 31.10995 97.00517 36052 ft 408 kts 259°
2026-04-28 12:19 31.09619 96.94101 36060 ft 408 kts 259°
2026-04-28 12:20 31.08235 96.87676 36072 ft 408 kts 259°
2026-04-28 12:20 31.06843 96.81244 36074 ft 408 kts 260°
2026-04-28 12:21 31.05458 96.74830 36075 ft 408 kts 260°
2026-04-28 12:21 31.04070 96.68405 36088 ft 409 kts 260°
2026-04-28 12:22 31.02677 96.61993 36085 ft 408 kts 260°
2026-04-28 12:22 31.01277 96.55582 36089 ft 408 kts 260°
2026-04-28 12:23 30.99872 96.49169 36076 ft 408 kts 260°
2026-04-28 12:23 30.98467 96.42767 36070 ft 407 kts 260°
2026-04-28 12:24 30.97099 96.36403 36062 ft 407 kts 261°
2026-04-28 12:24 30.95754 96.29988 36062 ft 407 kts 261°
2026-04-28 12:25 30.94410 96.23596 36055 ft 407 kts 261°
2026-04-28 12:25 30.93048 96.17178 36061 ft 408 kts 261°
2026-04-28 12:26 30.91682 96.10792 36056 ft 406 kts 261°
2026-04-28 12:26 30.90321 96.04421 36037 ft 406 kts 260°
2026-04-28 12:27 30.88956 95.98029 36037 ft 406 kts 260°
2026-04-28 12:27 30.87583 95.91641 36039 ft 406 kts 260°
2026-04-28 12:28 30.86207 95.85266 36038 ft 406 kts 260°
2026-04-28 12:28 30.84831 95.78895 36042 ft 406 kts 260°
2026-04-28 12:29 30.82784 95.69336 36023 ft 406 kts 260°
2026-04-28 12:30 30.81487 95.63003 36029 ft 404 kts 261°
2026-04-28 12:30 30.80191 95.56639 36040 ft 405 kts 261°
2026-04-28 12:31 30.78880 95.50263 36056 ft 405 kts 261°
2026-04-28 12:31 30.77553 95.43900 36075 ft 405 kts 261°
2026-04-28 12:32 30.76226 95.37534 36070 ft 404 kts 261°
2026-04-28 12:32 30.74895 95.31182 36080 ft 404 kts 260°
2026-04-28 12:33 30.73563 95.24838 36106 ft 404 kts 260°
2026-04-28 12:33 30.72239 95.18518 36113 ft 402 kts 261°
2026-04-28 12:34 30.70913 95.12198 36121 ft 402 kts 260°
2026-04-28 12:34 30.69585 95.05930 36113 ft 402 kts 260°
2026-04-28 12:35 30.68246 94.99577 36129 ft 403 kts 260°
2026-04-28 12:35 30.66925 94.93306 36119 ft 402 kts 261°
2026-04-28 12:36 30.65584 94.87002 36133 ft 402 kts 261°
2026-04-28 12:36 30.64241 94.80702 36133 ft 402 kts 261°
2026-04-28 12:37 30.62905 94.74416 36131 ft 401 kts 261°
2026-04-28 12:37 30.61558 94.68137 36134 ft 401 kts 260°
2026-04-28 12:38 30.60206 94.61860 36140 ft 401 kts 260°
2026-04-28 12:38 30.58852 94.55590 36126 ft 401 kts 260°
2026-04-28 12:39 30.57506 94.49362 36137 ft 400 kts 261°
2026-04-28 12:39 30.56150 94.43069 36153 ft 400 kts 261°
2026-04-28 12:40 30.54790 94.36816 36158 ft 399 kts 261°
2026-04-28 12:40 30.53433 94.30614 36152 ft 399 kts 261°
2026-04-28 12:41 30.52077 94.24353 36167 ft 400 kts 260°
2026-04-28 12:41 30.50719 94.18092 36171 ft 401 kts 261°
2026-04-28 12:42 30.49409 94.11841 36167 ft 398 kts 261°
2026-04-28 12:42 30.48126 94.05592 36177 ft 399 kts 261°
2026-04-28 12:43 30.46845 93.99343 36173 ft 398 kts 261°
2026-04-28 12:43 30.45551 93.93146 36172 ft 398 kts 261°
2026-04-28 12:44 30.44239 93.86907 36179 ft 400 kts 261°
2026-04-28 12:44 30.42921 93.80664 36162 ft 397 kts 261°
2026-04-28 12:45 30.41606 93.74438 36170 ft 398 kts 261°
2026-04-28 12:45 30.40305 93.68242 36146 ft 396 kts 261°
2026-04-28 12:46 30.38962 93.62037 36161 ft 398 kts 256°
2026-04-28 12:46 30.36375 93.56300 36152 ft 409 kts 241°
2026-04-28 12:47 30.33100 93.50904 36100 ft 411 kts 240°
2026-04-28 12:47 30.29840 93.45520 36121 ft 412 kts 240°
2026-04-28 12:48 30.26561 93.40099 36115 ft 410 kts 240°
2026-04-28 12:48 30.23298 93.34690 36057 ft 408 kts 239°
2026-04-28 12:49 30.20034 93.29285 36081 ft 410 kts 240°
2026-04-28 12:49 30.16774 93.23922 36079 ft 410 kts 240°
2026-04-28 12:50 30.13495 93.18535 36035 ft 410 kts 240°
2026-04-28 12:50 30.10218 93.13137 36030 ft 410 kts 240°
2026-04-28 12:51 30.06942 93.07763 36024 ft 408 kts 240°
2026-04-28 12:51 30.04209 93.03283 35998 ft 410 kts 240°
2026-04-28 12:52 30.00371 92.96992 35998 ft 408 kts 241°
2026-04-28 12:52 29.97690 92.92613 35992 ft 399 kts 241°
2026-04-28 12:53 29.94467 92.87338 35990 ft 405 kts 240°
2026-04-28 12:53 29.91209 92.82013 35993 ft 407 kts 240°
2026-04-28 12:54 29.87936 92.76689 36003 ft 407 kts 240°
2026-04-28 12:54 29.84659 92.71367 35991 ft 408 kts 240°
2026-04-28 12:55 29.81381 92.66039 35984 ft 408 kts 240°
2026-04-28 12:55 29.78102 92.60708 35975 ft 408 kts 240°
2026-04-28 12:56 29.74810 92.55367 35971 ft 409 kts 240°
2026-04-28 12:56 29.71508 92.50015 35980 ft 411 kts 240°
2026-04-28 12:57 29.68199 92.44663 35972 ft 410 kts 240°
2026-04-28 12:57 29.64909 92.39354 35960 ft 410 kts 240°
2026-04-28 12:58 29.61592 92.34015 35961 ft 411 kts 240°
2026-04-28 12:58 29.58271 92.28667 35927 ft 411 kts 240°
2026-04-28 12:59 29.54952 92.23324 35931 ft 410 kts 239°
2026-04-28 12:59 29.51632 92.17991 35572 ft 410 kts 239°
2026-04-28 12:59 29.49967 92.15320 35331 ft 411 kts 239°
2026-04-28 13:00 29.48324 92.12685 35081 ft 410 kts 239°
2026-04-28 13:00 29.46674 92.10042 34757 ft 406 kts 239°
2026-04-28 13:00 29.45031 92.07416 34321 ft 405 kts 239°
2026-04-28 13:00 29.43390 92.04792 33885 ft 404 kts 239°
2026-04-28 13:01 29.41757 92.02179 33421 ft 402 kts 239°
2026-04-28 13:01 29.40131 91.99581 32994 ft 399 kts 239°
2026-04-28 13:01 29.38519 91.97002 32548 ft 397 kts 239°
2026-04-28 13:01 29.36915 91.94442 32123 ft 394 kts 239°
2026-04-28 13:02 29.35319 91.91896 31700 ft 392 kts 238°
2026-04-28 13:02 29.33731 91.89361 31261 ft 391 kts 238°
2026-04-28 13:02 29.32155 91.86844 30858 ft 388 kts 238°
2026-04-28 13:02 29.30579 91.84335 30451 ft 387 kts 238°
2026-04-28 13:03 29.29005 91.81831 30035 ft 387 kts 238°
2026-04-28 13:03 29.27502 91.79285 29573 ft 383 kts 245°
2026-04-28 13:03 29.26482 91.76506 29161 ft 376 kts 257°
2026-04-28 13:03 29.26024 91.73590 28751 ft 370 kts 268°
2026-04-28 13:04 29.26104 91.70659 28365 ft 367 kts 277°
2026-04-28 13:04 29.26362 91.67752 27961 ft 366 kts 276°
2026-04-28 13:04 29.26611 91.64863 27573 ft 364 kts 276°
2026-04-28 13:04 29.26852 91.61979 27186 ft 362 kts 276°
2026-04-28 13:05 29.27086 91.59149 26805 ft 361 kts 276°
2026-04-28 13:05 29.27323 91.56291 26415 ft 359 kts 276°
2026-04-28 13:05 29.27563 91.53445 26027 ft 358 kts 276°
2026-04-28 13:05 29.27803 91.50613 25607 ft 357 kts 276°
2026-04-28 13:06 29.28033 91.47782 25195 ft 356 kts 275°
2026-04-28 13:06 29.28249 91.44959 24781 ft 356 kts 275°
2026-04-28 13:06 29.28456 91.42131 24352 ft 356 kts 275°
2026-04-28 13:06 29.28661 91.39297 23900 ft 356 kts 275°
2026-04-28 13:07 29.28869 91.36459 23430 ft 357 kts 275°
2026-04-28 13:07 29.29078 91.33622 22975 ft 356 kts 275°
2026-04-28 13:07 29.29287 91.30802 22491 ft 355 kts 275°
2026-04-28 13:07 29.29494 91.27995 22079 ft 352 kts 275°
2026-04-28 13:08 29.29701 91.25202 21607 ft 352 kts 275°
2026-04-28 13:08 29.29910 91.22416 21165 ft 350 kts 275°
2026-04-28 13:08 29.30118 91.19640 20716 ft 349 kts 274°
2026-04-28 13:08 29.30319 91.16885 20358 ft 346 kts 274°
2026-04-28 13:09 29.30518 91.14143 19926 ft 345 kts 274°
2026-04-28 13:09 29.30715 91.11407 19490 ft 345 kts 274°
2026-04-28 13:09 29.30909 91.08669 19054 ft 345 kts 274°
2026-04-28 13:09 29.31105 91.05932 18622 ft 344 kts 274°
2026-04-28 13:10 29.31301 91.03211 18241 ft 342 kts 274°
2026-04-28 13:10 29.31592 91.00507 17893 ft 336 kts 279°
2026-04-28 13:10 29.32090 90.97974 17773 ft 317 kts 285°
2026-04-28 13:10 29.32743 90.95634 17642 ft 300 kts 290°
2026-04-28 13:11 29.33530 90.93497 17511 ft 282 kts 295°
2026-04-28 13:11 29.34416 90.91563 17408 ft 266 kts 299°
2026-04-28 13:11 29.35342 90.89848 17340 ft 250 kts 303°
2026-04-28 13:11 29.36320 90.88277 17197 ft 232 kts 307°
2026-04-28 13:12 29.37152 90.86766 16985 ft 220 kts 290°
2026-04-28 13:12 29.37424 90.85078 16652 ft 214 kts 268°
2026-04-28 13:12 29.37340 90.83382 16341 ft 212 kts 264°
2026-04-28 13:12 29.37180 90.81728 15953 ft 208 kts 261°
2026-04-28 13:13 29.36939 90.80095 15478 ft 208 kts 258°
2026-04-28 13:13 29.36616 90.78483 15010 ft 207 kts 255°
2026-04-28 13:13 29.36063 90.76971 14542 ft 206 kts 235°
2026-04-28 13:13 29.35041 90.75842 14114 ft 205 kts 211°
2026-04-28 13:14 29.33763 90.75287 13944 ft 190 kts 188°
2026-04-28 13:14 29.32485 90.75298 13857 ft 181 kts 167°
2026-04-28 13:14 29.31323 90.75808 13855 ft 178 kts 148°
2026-04-28 13:14 29.30397 90.76732 13817 ft 179 kts 128°
2026-04-28 13:15 29.29805 90.77965 13639 ft 180 kts 107°
2026-04-28 13:15 29.29628 90.79374 13436 ft 179 kts 87°
2026-04-28 13:15 29.29656 90.80801 13200 ft 179 kts 88°
2026-04-28 13:15 29.29677 90.82222 12837 ft 178 kts 88°
2026-04-28 13:16 29.29697 90.83633 12495 ft 177 kts 88°
2026-04-28 13:16 29.29718 90.85038 12221 ft 176 kts 88°
2026-04-28 13:16 29.29724 90.86436 11959 ft 175 kts 89°
2026-04-28 13:16 29.29754 90.87829 11709 ft 174 kts 88°
2026-04-28 13:17 29.29775 90.89210 11510 ft 173 kts 88°
2026-04-28 13:17 29.29796 90.90507 11463 ft 141 kts 89°
2026-04-28 13:17 29.29808 90.91279 11458 ft 55 kts 89°
2026-04-28 13:17 29.29814 90.91683 11447 ft 52 kts 89°
2026-04-28 13:18 29.29803 90.91991 11441 ft 33 kts 112°
2026-04-28 13:18 29.29719 90.92178 11439 ft 23 kts 117°
2026-04-28 13:18 29.29658 90.92159 11445 ft 15 kts 263°